Weather in Markovo

Russia / Yaroslavl Oblast     57°18′48″N   39°21′10″E
temp.,
°C
wind,
m/s
gust,
m/s
humid.,
%
clouds,
%
prec.,
mm/h
press.,
hPa
HPBL,
m
4 march, thu
thu400:00−2wsw61393100 0.1 1002596
03:00−1wsw61396100 0.4 999618
06:00+1w81497100 1.8 995874
09:00−1wnw8138099 2.2 995920
12:00−2nw698446 0.0 997949
15:00−2nw578372 0.1 998932
18:00−6nw348882 0.1 99939
21:00−9nw239256 0.1 100121
5 march, fri
fri500:00−11wnw23920 0.0 100221
03:00−11wnw23920 0.0 100321
06:00−11w239533 0.0 100447
09:00−8wnw479467 0.4 1005309
12:00−5wnw468793 0.1 1006740
15:00−5wnw578396 0.3 1008936
18:00−8wnw489072 0.2 1010192
21:00−12nnw348964 0.3 101362
6 march, sat
sat600:00−16nw23920 0.0 101521
03:00−17wnw23910 0.0 101621
06:00−17w34910 0.0 101635
09:00−14wnw37925 0.0 1016221
12:00−8wnw46850 0.0 1016540
15:00−7wnw468430 0.0 1015871
18:00−10w348998 0.1 101342
21:00−12sw349249 0.1 101263
7 march, sun
sun700:00−10ssw5118884 0.0 1008332
03:00−8sw7149091 0.1 1004723
06:00−6sw81592100 0.9 998922
09:00−4sw81492100 1.6 9941087
12:00−3sw81393100 1.2 9911039
15:00−5wnw81277100 2.1 9921412
18:00−10w5117567 0.1 994241
21:00−10sw378967 0.1 994140
8 march, mon
mon800:00−8sw51386100 0.2 992708
03:00−7wsw4893100 0.5 991263
06:00−10nnw81480100 0.9 992703
09:00−12nw6128889 0.9 996660
12:00−9nw81188100 0.2 999919
15:00−9nw71186100 0.3 1003881
18:00−11nw5118899 0.1 1006556
21:00−13nw499396 0.1 1009238